Location: Villingen
(48.0639°N, 8.4609°E)
Time: 16:54:09
(UTC+01:00)

ISS - Pass Details

Date: 21 March 2017
Orbit: 399 x 409 km, 51.6° (Epoch: 25 March)

Event Time Altitude Azimuth Distance (km) Brightness Sun altitude
Exits shadow 04:36:50 66° 198° (SSW) 450 -3.9 -18.8°
Drops below altitude 10° 04:40:03 10° 125° (SE) 1,471 -0.6 -18.3°
Sets 04:42:08 0° 123° (ESE) 2,329 0.5 -17.9°
